This is the latest recevied weather packets stored in our database for station/object KB3HLL. If no packets are shown the sender has not sent any weather packets the latest 10 day(s).
| Time | Temp. | Humidity | Pressure | Rain* | Wind** | Luminosity | Snow |
|---|---|---|---|---|---|---|---|
| 1777841177 | 12.22° C | 48% | 1012.6 hPa | 0 mm | - | 597 W/m² | - |
| 1777840878 | 12.22° C | 48% | 1012.8 hPa | 0 mm | - | 632 W/m² | - |
| 1777840578 | 11.67° C | 50% | 1012.5 hPa | 0 mm | - | 672 W/m² | - |
| 1777840278 | 11.67° C | 49% | 1012.5 hPa | 0 mm | - | 713 W/m² | - |
| 1777839978 | 11.67° C | 50% | 1012.6 hPa | 0 mm | - | 411 W/m² | - |
| 1777839677 | 11.67° C | 50% | 1012.6 hPa | 0 mm | - | 356 W/m² | - |
| 1777839378 | 11.67° C | 49% | 1012.7 hPa | 0 mm | - | 276 W/m² | - |
| 1777839078 | 12.22° C | 48% | 1012.6 hPa | 0 mm | - | 694 W/m² | - |
| 1777838777 | 11.67° C | 48% | 1012.8 hPa | 0 mm | - | 784 W/m² | - |
| 1777838478 | 11.67° C | 49% | 1012.6 hPa | 0 mm | - | 779 W/m² | - |
| 1777838177 | 11.67° C | 49% | 1012.8 hPa | 0 mm | - | 759 W/m² | - |
| 1777837878 | 11.67° C | 50% | 1012.8 hPa | 0 mm | - | 305 W/m² | - |
| 1777837577 | 11.67° C | 49% | 1012.8 hPa | 0 mm | - | 356 W/m² | - |
| 1777837278 | 11.67° C | 50% | 1012.8 hPa | 0 mm | - | 422 W/m² | - |
| 1777836978 | 11.67° C | 49% | 1013 hPa | 0 mm | - | 322 W/m² | - |
| 1777836678 | 11.67° C | 50% | 1013.3 hPa | 0 mm | - | 827 W/m² | - |
| 1777836377 | 11.11° C | 49% | 1012.9 hPa | 0 mm | - | 536 W/m² | - |
| 1777836077 | 10.56° C | 49% | 1013.1 hPa | 0 mm | - | 932 W/m² | - |
| 1777835778 | 11.11° C | 50% | 1013.1 hPa | 0 mm | - | 253 W/m² | - |
| 1777835477 | 11.67° C | 48% | 1013.3 hPa | 0 mm | - | 887 W/m² | - |
| 1777835177 | 11.11° C | 49% | 1013.3 hPa | 0 mm | - | 935 W/m² | - |
| 1777834877 | 11.11° C | 49% | 1013.3 hPa | 0 mm | - | 298 W/m² | - |
| 1777834578 | 10.56° C | 49% | 1013.4 hPa | 0 mm | - | 700 W/m² | - |
| 1777834278 | 10.56° C | 50% | 1013.1 hPa | 0 mm | - | 299 W/m² | - |
| 1777833979 | 10.56° C | 51% | 1013.1 hPa | 0 mm | - | 739 W/m² | - |
* Rain latest hour (hover to see other rain measurements)
** Current wind speed in m/s (hover to see current wind gust speed)